SCP
0 0 0 0 0 0 0 0 0 0 0 0 0 0 0 0 0 0 0 0 0 0 0 0 0 0 0 0 0 0 0 0
0 0 0 0 0 0 0 0 0 0 0 0 0 0 0 0 0 0 0 0 0 0 0 0 0 0 0 0 0 0 0 0
0 0 0 0 0 0 0 0 0 0 0 0 0 0 0 0 0 0 0 0 0 0 0 0 0 0 0 0 0 0 0 0
0 0 0 0 0 0 0 0 0 0 0 0 0 0 0 0 0 0 0 0 0 0 0 0 0 0 0 0 0 0 0 0
0 0 0 0 0 0 0 0 0 0 0 0 0 0 0 0 0 0 0 0 0 0 0 0 0 0 0 0 0 0 0 0
0 0 0 0 0 0 0 0 0 0 0 0 0 0 0 0 0 0 0 0 0 0 0 0 0 0 0 0 0 0 0 0
0 0 0 0 0 0 0 0 0 0 0 0 0 0 0 0 0 0 0 0 0 0 0 0 0 0 0 0 0 0 0 0
0 0 0 0 0 0 0 0 0 0 0 0 0 0 0 0 -0 0 0 0 0 0 0 0 0 0 0 0 0 0 0 0
0 0 0 0 0 0 0 0 0 0 -0 -0 -0 -0 -0 -0 -0 0 -0 0 0 -0 0 0 0 0 0 0 0 0 0 0
0 0 0 0 0 0 0 0 0 0 0 0 0 0 0 0 0 0 -0 0 0 0 0 0 0 0 0 0 0 0 0 0
0 0 0 0 0 0 0 0 0 0 0 0 0 0 0 0 0 0 0 0 0 0 0 0 0 0 0 0 0 0 0 0
0 0 0 0 0 0 0 0 0 0 0 0 0 0 0 0 0 0 0 0 0 0 0 0 0 0 0 0 0 0 0 0
0 0 0 0 0 0 0 0 0 0 0 0 0 0 0 0 0 0 0 0 0 0 0 0 0 0 0 0 0 0 0 0
0 0 0 0 0 0 0 0 0 0 0 0 0 0 0 0 0 0 0 0 0 0 0 0 0 0 0 0 0 0 0 0
0 0 0 0 0 0 0 0 0 0 0 0 0 0 0 0 0 0 0 0 0 0 0 0 0 0 0 0 0 0 0 0
0 0 0 0 0 0 0 0 0 0 0 0 0 0 0 0 0 0 0 0 0 0 0 0 0 0 0 0 0 0 0 0
0 0 0 0 0 0 0 0 0 0 0 0 0 0 0 0 0 0 0 0 0 0 0 0 0 0 0 0 0 0 0 0
0 0 0 0 0 0 0 0 0 0 0 0 0 0 0 0 0 0 0 0 0 0 0 0 0 0 0 0 0 0 0 0
0 0 0 0 0 0 0 0 0 0 0 0 0 0 0 0 0 0 0 0 0 0 0 0 0 0 0 0 0 0 0 0
0 0 0 0 0 0 0 0 0 0 0 0 0 0 0 0 0 0 0 0 0 0 0 0 0 0 0 0 0 0 0 0
Wind_Speed_500mb
37 35 33 30 28 24 23 22 22 19 15 13 12 14 16 18 21 25 30 34 38 40 44 48 50 52 56 63 69 77 81 83
31 27 25 23 19 19 17 17 16 16 15 13 14 17 21 25 29 32 35 41 46 50 55 57 58 58 60 62 63 69 75 80
27 24 20 19 18 18 19 18 20 20 19 19 20 21 23 26 31 35 38 41 46 50 53 55 57 58 60 63 64 67 71 73
22 18 17 16 16 16 16 19 20 21 22 24 27 30 33 35 38 40 43 45 48 51 53 56 58 60 61 64 67 70 73 73
15 12 11 11 12 14 17 19 21 23 25 27 30 32 34 36 39 42 47 51 54 57 59 60 62 63 65 67 70 73 76 78
11 10 9 8 10 13 17 20 24 28 31 33 36 40 44 48 53 57 59 61 67 70 66 65 65 64 65 66 69 72 75 77
15 12 9 10 13 17 21 26 31 36 40 45 48 52 55 57 58 61 64 67 69 70 74 74 70 69 69 70 72 70 70 72
15 9 6 10 15 21 26 31 36 40 44 49 53 56 59 62 66 68 72 74 76 78 80 82 79 76 72 69 72 75 73 68
9 3 10 17 23 28 33 37 42 46 49 54 59 62 63 66 69 70 73 76 81 84 85 86 82 80 78 72 68 66 67 68
3 6 16 22 28 32 35 41 48 53 56 59 60 64 66 70 75 77 80 83 85 87 89 89 85 78 78 75 71 68 63 61
2 10 19 27 33 39 43 47 52 55 57 57 62 67 71 74 78 80 83 88 90 90 89 88 87 80 78 73 71 69 62 57
9 17 25 32 38 41 43 47 51 54 56 57 59 65 68 74 78 82 86 87 87 88 88 84 81 80 73 68 67 64 64 58
23 27 31 38 42 46 47 53 58 61 63 64 66 69 72 75 81 83 86 91 92 91 91 84 78 73 67 61 51 47 47 44
31 34 33 38 46 50 51 58 64 68 72 75 78 78 78 81 82 87 88 89 92 89 88 84 72 61 52 44 34 34 34 24
35 38 41 42 47 52 57 64 73 79 80 80 80 78 77 79 80 80 84 86 87 84 77 70 58 44 33 26 25 20 6 12
40 46 50 55 58 60 65 70 76 80 81 82 83 84 84 83 83 79 79 78 78 73 62 53 39 25 16 16 11 6 19 23
45 53 57 59 61 61 65 70 74 78 79 81 84 87 87 86 87 78 73 70 64 51 48 38 26 15 15 9 11 19 23 28
54 57 61 65 66 65 68 73 75 78 80 82 84 86 87 86 83 82 70 65 57 38 37 26 19 22 16 17 20 22 28 26
57 60 66 71 73 72 75 78 80 81 82 84 84 85 85 83 78 71 62 59 49 33 32 23 27 25 26 28 23 25 24 24
61 67 72 78 81 82 83 85 85 83 82 80 82 82 82 79 73 66 57 49 42 40 30 29 30 32 37 32 22 19 21 21
Wind_Direction_500mb
101 98 92 86 79 73 65 56 50 45 36 19 359 341 329 318 308 301 298 299 300 298 296 296 296 295 291 287 285 282 280 279
104 99 94 92 84 71 61 51 39 30 21 7 349 336 327 322 317 312 310 307 306 305 302 301 300 298 294 292 288 283 281 279
107 102 95 80 70 56 46 34 33 28 17 5 357 347 337 331 327 323 321 319 315 311 309 308 307 305 302 298 295 290 286 283
111 94 75 63 53 48 42 32 21 10 358 348 340 336 334 332 329 326 324 322 321 319 317 314 311 308 305 303 301 298 294 291
111 88 73 66 64 53 39 25 11 360 351 346 343 341 337 334 330 328 326 325 321 321 318 314 310 306 302 299 297 295 294 293
131 115 102 88 58 35 21 11 2 354 349 345 340 335 331 327 324 322 318 316 316 313 310 310 309 307 302 298 296 294 293 290
135 117 91 55 31 17 5 355 348 343 340 336 332 329 326 323 321 320 317 315 315 314 313 312 310 308 305 303 301 298 294 292
135 112 51 12 357 349 346 344 339 337 334 331 328 327 325 323 321 319 319 320 320 319 319 316 315 312 310 309 307 304 300 295
132 64 346 343 344 344 341 338 333 331 329 327 324 322 320 318 318 319 318 319 319 318 318 316 316 313 310 308 305 303 301 298
172 331 336 336 334 330 328 326 323 322 322 321 318 316 317 316 316 317 315 315 315 317 316 315 314 311 308 307 305 304 302 299
291 319 316 316 318 320 320 317 315 315 315 315 314 312 313 313 314 314 312 311 312 312 313 313 312 312 309 307 303 301 299 294
314 316 315 312 313 315 318 314 314 313 314 314 314 312 311 309 309 311 310 309 309 309 309 310 310 307 305 303 302 301 299 295
306 308 311 310 311 313 316 312 312 313 313 313 312 309 308 307 307 308 309 308 308 308 308 309 308 306 303 298 293 291 293 290
303 304 306 305 306 308 309 309 309 309 310 310 309 308 306 305 305 305 306 308 307 308 309 310 308 305 299 296 294 295 295 289
296 297 301 302 305 308 311 309 306 306 307 308 308 308 308 306 305 305 304 306 305 306 308 307 306 302 297 290 294 296 270 142
302 305 309 310 311 313 312 309 309 309 309 308 307 306 306 304 304 305 304 307 304 304 304 303 301 291 264 281 277 179 140 139
302 305 308 310 312 315 313 312 311 310 310 309 308 306 304 302 301 302 304 304 302 295 295 295 273 229 231 248 169 153 154 157
306 309 311 312 312 314 312 312 312 309 308 306 305 304 302 300 300 301 302 301 300 289 282 267 225 194 203 172 158 163 168 172
307 308 308 308 308 308 306 306 305 303 302 301 301 300 299 298 297 296 295 293 293 289 278 236 197 197 181 179 171 150 153 171
305 305 305 305 306 306 305 304 303 301 299 298 297 296 295 294 293 290 286 276 269 272 261 214 199 197 193 197 191 175 174 182
Wind_Speed_850mb
37 35 33 30 28 24 23 22 22 19 15 13 12 14 16 18 21 25 30 34 38 40 44 48 50 52 56 63 69 77 81 83
31 27 25 23 19 19 17 17 16 16 15 13 14 17 21 25 29 32 35 41 46 50 55 57 58 58 60 62 63 69 75 80
27 24 20 19 18 18 19 18 20 20 19 19 20 21 23 26 31 35 38 41 46 50 53 55 57 58 60 63 64 67 71 73
22 18 17 16 16 16 16 19 20 21 22 24 27 30 33 35 38 40 43 45 48 51 53 56 58 60 61 64 67 70 73 73
15 12 11 11 12 14 17 19 21 23 25 27 30 32 34 36 39 42 47 51 54 57 59 60 62 63 65 67 70 73 76 78
11 10 9 8 10 13 17 20 24 28 31 33 36 40 44 48 53 57 59 61 67 70 66 65 65 64 65 66 69 72 75 77
15 12 9 10 13 17 21 26 31 36 40 45 48 52 55 57 58 61 64 67 69 70 74 74 70 69 69 70 72 70 70 72
15 9 6 10 15 21 26 31 36 40 44 49 53 56 59 62 66 68 72 74 76 78 80 82 79 76 72 69 72 75 73 68
9 3 10 17 23 28 33 37 42 46 49 54 59 62 63 66 69 70 73 76 81 84 85 86 82 80 78 72 68 66 67 68
3 6 16 22 28 32 35 41 48 53 56 59 60 64 66 70 75 77 80 83 85 87 89 89 85 78 78 75 71 68 63 61
2 10 19 27 33 39 43 47 52 55 57 57 62 67 71 74 78 80 83 88 90 90 89 88 87 80 78 73 71 69 62 57
9 17 25 32 38 41 43 47 51 54 56 57 59 65 68 74 78 82 86 87 87 88 88 84 81 80 73 68 67 64 64 58
23 27 31 38 42 46 47 53 58 61 63 64 66 69 72 75 81 83 86 91 92 91 91 84 78 73 67 61 51 47 47 44
31 34 33 38 46 50 51 58 64 68 72 75 78 78 78 81 82 87 88 89 92 89 88 84 72 61 52 44 34 34 34 24
35 38 41 42 47 52 57 64 73 79 80 80 80 78 77 79 80 80 84 86 87 84 77 70 58 44 33 26 25 20 6 12
40 46 50 55 58 60 65 70 76 80 81 82 83 84 84 83 83 79 79 78 78 73 62 53 39 25 16 16 11 6 19 23
45 53 57 59 61 61 65 70 74 78 79 81 84 87 87 86 87 78 73 70 64 51 48 38 26 15 15 9 11 19 23 28
54 57 61 65 66 65 68 73 75 78 80 82 84 86 87 86 83 82 70 65 57 38 37 26 19 22 16 17 20 22 28 26
57 60 66 71 73 72 75 78 80 81 82 84 84 85 85 83 78 71 62 59 49 33 32 23 27 25 26 28 23 25 24 24
61 67 72 78 81 82 83 85 85 83 82 80 82 82 82 79 73 66 57 49 42 40 30 29 30 32 37 32 22 19 21 21
Wind_Direction_850mb
101 98 92 86 79 73 65 56 50 45 36 19 359 341 329 318 308 301 298 299 300 298 296 296 296 295 291 287 285 282 280 279
104 99 94 92 84 71 61 51 39 30 21 7 349 336 327 322 317 312 310 307 306 305 302 301 300 298 294 292 288 283 281 279
107 102 95 80 70 56 46 34 33 28 17 5 357 347 337 331 327 323 321 319 315 311 309 308 307 305 302 298 295 290 286 283
111 94 75 63 53 48 42 32 21 10 358 348 340 336 334 332 329 326 324 322 321 319 317 314 311 308 305 303 301 298 294 291
111 88 73 66 64 53 39 25 11 360 351 346 343 341 337 334 330 328 326 325 321 321 318 314 310 306 302 299 297 295 294 293
131 115 102 88 58 35 21 11 2 354 349 345 340 335 331 327 324 322 318 316 316 313 310 310 309 307 302 298 296 294 293 290
135 117 91 55 31 17 5 355 348 343 340 336 332 329 326 323 321 320 317 315 315 314 313 312 310 308 305 303 301 298 294 292
135 112 51 12 357 349 346 344 339 337 334 331 328 327 325 323 321 319 319 320 320 319 319 316 315 312 310 309 307 304 300 295
132 64 346 343 344 344 341 338 333 331 329 327 324 322 320 318 318 319 318 319 319 318 318 316 316 313 310 308 305 303 301 298
172 331 336 336 334 330 328 326 323 322 322 321 318 316 317 316 316 317 315 315 315 317 316 315 314 311 308 307 305 304 302 299
291 319 316 316 318 320 320 317 315 315 315 315 314 312 313 313 314 314 312 311 312 312 313 313 312 312 309 307 303 301 299 294
314 316 315 312 313 315 318 314 314 313 314 314 314 312 311 309 309 311 310 309 309 309 309 310 310 307 305 303 302 301 299 295
306 308 311 310 311 313 316 312 312 313 313 313 312 309 308 307 307 308 309 308 308 308 308 309 308 306 303 298 293 291 293 290
303 304 306 305 306 308 309 309 309 309 310 310 309 308 306 305 305 305 306 308 307 308 309 310 308 305 299 296 294 295 295 289
296 297 301 302 305 308 311 309 306 306 307 308 308 308 308 306 305 305 304 306 305 306 308 307 306 302 297 290 294 296 270 142
302 305 309 310 311 313 312 309 309 309 309 308 307 306 306 304 304 305 304 307 304 304 304 303 301 291 264 281 277 179 140 139
302 305 308 310 312 315 313 312 311 310 310 309 308 306 304 302 301 302 304 304 302 295 295 295 273 229 231 248 169 153 154 157
306 309 311 312 312 314 312 312 312 309 308 306 305 304 302 300 300 301 302 301 300 289 282 267 225 194 203 172 158 163 168 172
307 308 308 308 308 308 306 306 305 303 302 301 301 300 299 298 297 296 295 293 293 289 278 236 197 197 181 179 171 150 153 171
305 305 305 305 306 306 305 304 303 301 299 298 297 296 295 294 293 290 286 276 269 272 261 214 199 197 193 197 191 175 174 182